Portada
METAR-TAF:

METAR-TAF

Aeroports :

Bandar Lengeh, Iran

latitud: 26-35N, longitud: 054-50E, altitud: 14 m

Observació

L'informe es va fer fa 1 hora i 43 minuts, a les 21:00 UTC
Vent 6 kt del Nord/Nord-Est
Temperatura 21°C
Humitat 28%
Pressió 1015 hPa
Visibilitat 10 km o més
sense núvols per sota de 1500 mi sense presència de cumulonimbus.

METAR: OIBL 132100Z 02006KT CAVOK 21/02 Q1015

Hora: 02:13 (22:43 UTC)


TAF: manca

Observacions i pronòstics meteorològics de més de 4000 aeroports (METAR i TAF).

Les estacions disponibles són els punts grocs i vermells al mapa.

Posi el ratolí al punt desitjat per veure el nom de l'estació.

Feu clic per veure les observacions i els pronòstics meteorològics.

Per canviar el mapa: feu clic els botons verds amb una creu de color negre per apropar; al botó verd amb un guió per allunyar la imatge; o en les fletxes verdes per a mapes adjacents.


METAR-TAF: